Location: Arbon
(43.0005°N, 0.7472°E)
Time: 18:55:51
(UTC+00:00)

Cosmos 2279 Rocket - Pass Details

Date: 07 August 2020
Orbit: 965 x 978 km, 82.9° (Epoch: 24 September)

Event Time Altitude Azimuth Distance (km) Brightness Sun altitude
Exits shadow 01:44:43 49° 151° (SSE) 1,222 4.2 -26.2°
Maximum altitude 01:46:15 66° 93° (E) 1,051 4.1 -26.1°
Drops below altitude 10° 01:52:24 10° 13° (NNE) 2,715 7.3 -25.6°
Sets 01:54:55 0° 11° (N) 3,668 8.2 -25.3°
